STARLINK-32537, 61923

Orbit data source: Space-Track

STARLINK-32537, 61923 is a payload satellite owned by SpaceX/Seattle (US) in LEO that was launched on Mon, 11 Nov 2024 UTC via an FALCON 9 launch vehicle from the Air Force Eastern Test Range (AFETR). Payloads include a variety of satellites, spacecraft, and rockets equipped with specific instruments for various scientific and technological missions. These include communications satellites like Starlink; space stations such as the ISS; scientific satellites like the Hubble; Earth observation satellites from companies like Planet Labs, Umbra, and HawkEye 360; GPS; miniature CubeSats for education and research; and military/defense satellites.

Loading next visibility...
STARLINK-32537 details
Identifier
61923, 2024-207M
Orbit
LEO
Last TLE update8 hours ago
Origin
Flag of USSpaceX/Seattle (US)
ManufacturerSpaceX/Seattle
MissionOperational spacecraft
Bus & MotorSTARLINK V2M, Unknown motor
Mass730 kg wet, ~700 kg dry
Launch date (UTC)
2024-11-11 (1 week ago)
Launch vehicle
FALCON 9
Launch site
Air Force Eastern Test Range (AFETR)
Object type
Payload
Rocket body
Debris
Shape & HBRUnknown
Radar Cross SectionRCS unknown

Expand to show TLE details & history

TLE from 8 hours ago
0 STARLINK-32537
1 61923U 24207M   24325.91668981 -.00713687  00000-0 -23766-2 0  9990
2 61923  43.0025  94.4678 0001897 288.5145 237.7096 15.90833801  2658
Epoch: 2024-11-20T22:00Z
Definitive object data (Epoch: 2024-11-20T22:00:01.999Z)
Latitude9.3581°
Longitude-126.06634°
Altitude299.661 km
Speed7.73 km/s
True Right ascension17h 37m 23s
True Declination9° 17' 58"
Sunlit
Object was in daylight at TLE epoch
Visualization TLE readout
Latitude21.85249°
Longitude87.17324°
Altitude301.241 km
Speed7.731 km/s
Apparent Right ascension10h 58m 57s
Apparent Declination-14° 49' 59"
Sunlit
Object is in full shadow
Visualization observer readout
Local Sidereal Time03:31:37
Azimuth87.809° E
Elevation-26.105°
Doppler factor1
Orbital elements
Apogee altitude303.213 km
Perigee altitude300.679 km
Semi-major axis6,680.083 km
Eccentricity0.0001897
Inclination43.0025°
RAAN94.4678°
Arg. of periapsis288.5145°
True anomaly237.69123°
Mean anomaly237.7096°
Eccentric anomaly237.70041°
Mean motion3.9753 °/min
BSTAR-0.0023766
Orbital period90.56 mins
Loading maneuver chart data...
Loading historical data...
Loading historical data...
Loading historical data...
Loading historical data...
Loading historical data...
Loading historical data...
Loading historical data...

STARLINK-32537 Visibility forecast

Observer location: undefined°, undefined

Span
Click to sort rows by Start time (UTC) header in descending order
Start Az.
Max El. time (UTC)
Max El. Az.
Max El.
End time (UTC)
End Az.
4 mins2024-11-21 12:37:05.099Z224.146° SW2024-11-21 12:39:05.099Z119.27° SE33.364°2024-11-21 12:41:05.099Z79.928° E
|